Location: *
(58.7167°N, 26.1833°E)
Time: 04:15:47
(UTC+00:00)

Cosmos 1782 Rocket - Pass Details

Date: 25 August 2019
Orbit: 606 x 633 km, 82.5° (Epoch: 18 September)

Event Time Altitude Azimuth Distance (km) Brightness Sun altitude
Exits shadow 19:23:06 - 187° (S) 2,423 6.2 -12.2°
Reaches altitude 10° 19:24:10 10° 187° (S) 1,996 5.8 -12.3°
Maximum altitude 19:28:35 80° 101° (ESE) 639 3.5 -12.7°
Drops below altitude 10° 19:33:00 10° 15° (NNE) 1,994 6.6 -13.1°
Sets 19:35:14 0° 15° (NNE) 2,899 7.5 -13.3°
